Home > Weather > Vila Nova de Gaia > Past weeks

Flag for Portugal Past Weather in Vila Nova de Gaia, Portugal — Yesterday and Last 2 Weeks

Now
61 °F

Fog.


Feels Like: 61 °F
Forecast: 57 / 73 °F
Wind: No wind

Location: Porto / Pedras Rubras

Current Time: Aug 27, 2016 at 6:01:06 AM

Latest Report: Aug 27, 2016 at 5:30 AM


Visibility: 1 mi

Pressure: 30.01 "Hg

Humidity: 100%

Dew Point: 61 °F

Location of Vila Nova de GaiaLocation

Past Weather in Vila Nova de Gaia — Graph

°F

Vila Nova de Gaia Temperature Yesterday

Maximum temperature yesterday: 79 °F (at 3:00 PM)
Minimum temperature yesterday: 61 °F (at 12:00 AM)
Average temperature yesterday: 67 °F

High & Low Weather Summary for the Past Weeks

 TemperatureHumidityPressure
High88 °F (Aug 12, 12:30 PM)100% (Aug 13, 8:30 PM)30.18 "Hg (Aug 13, 8:30 PM)
Low52 °F (Aug 20, 7:00 AM)25% (Aug 12, 12:30 PM)29.89 "Hg (Aug 19, 6:00 AM)
Average65 °F83%30.05 "Hg
* Reported Aug 12 4:00 AM — Aug 27 4:30 AM, Vila Nova de Gaia, Weather by CustomWeather, © 2016

Note: Actual official high and low records may vary slightly from our data, if they occured in-between our weather recording intervals... More about our weather records

Advertising

Vila Nova de Gaia Weather History for the Previous 24 Hours

Scroll right to see more
 ConditionsComfort  
Time TempWeatherWind HumidityBarometerVisibility
4:30 AM
Sat, Aug 27
59 °FFog.No wind100%30.01 "Hg1 mi
4:00 AM59 °FFog.No wind100%30.01 "Hg1 mi
3:30 AM59 °FFog.6 mph100%29.98 "Hg1 mi
3:00 AM59 °FFog.6 mph100%30.01 "Hg1 mi
2:30 AM61 °FFog.6 mph100%29.98 "Hg1 mi
2:00 AM61 °FFog.3 mph100%29.98 "Hg1 mi
1:30 AM61 °FPassing clouds.2 mph100%29.98 "Hg5 mi
1:00 AM61 °FClear.No wind100%29.98 "Hg5 mi
12:30 AM61 °FClear.No wind100%29.98 "Hg10 mi
12:00 AM61 °FClear.2 mph100%29.98 "Hg6 mi
11:30 PM
Fri, Aug 26
63 °FClear.5 mph100%29.98 "Hg10 mi
11:00 PM63 °FClear.6 mph100%29.98 "Hg10 mi
10:30 PM63 °FClear.2 mph100%29.98 "Hg10 mi
10:00 PM63 °FClear.1 mph94%29.98 "Hg10 mi
9:30 PM66 °FClear.2 mph88%29.95 "Hg10 mi
9:00 PM64 °FSunny.3 mph94%29.95 "Hg10 mi
8:30 PM68 °FSunny.5 mph83%29.95 "Hg10 mi
8:00 PM68 °FClear.6 mph88%29.95 "Hg6 mi
7:30 PM70 °FPassing clouds.3 mph78%29.95 "HgN/A
7:00 PM73 °FSunny.5 mph74%29.92 "Hg10 mi
6:30 PM77 °FSunny.3 mph69%29.92 "Hg10 mi
6:00 PM75 °FPassing clouds.3 mph74%29.92 "HgN/A
5:30 PM75 °FPassing clouds.5 mph69%29.92 "HgN/A
5:00 PM75 °FPassing clouds.5 mph69%29.92 "HgN/A
4:30 PM73 °FPassing clouds.5 mph74%29.92 "HgN/A
4:00 PM77 °FPassing clouds.5 mph65%29.92 "HgN/A
3:30 PM79 °FPassing clouds.6 mph65%29.92 "HgN/A
3:00 PM79 °FPassing clouds.6 mph65%29.95 "HgN/A
2:30 PM77 °FSunny.5 mph69%29.95 "Hg10 mi
2:00 PM75 °FPassing clouds.5 mph74%29.95 "HgN/A
1:30 PM73 °FPassing clouds.5 mph78%29.95 "HgN/A
1:00 PM70 °FPassing clouds.6 mph83%29.95 "HgN/A
12:30 PM70 °FPassing clouds.6 mph83%29.98 "HgN/A
12:00 PM70 °FPassing clouds.7 mph83%29.95 "HgN/A
11:30 AM68 °FPassing clouds.8 mph88%29.95 "HgN/A
11:00 AM70 °FSunny.8 mph83%29.95 "Hg10 mi
10:30 AM72 °FClear.5 mph83%29.95 "Hg5 mi
10:00 AM72 °FClear.3 mph88%29.95 "Hg4 mi
9:30 AM66 °FClear.3 mph100%29.95 "Hg4 mi
9:00 AM63 °FFog.2 mph100%29.95 "Hg2 mi
8:30 AM63 °FFog.5 mph100%29.95 "Hg1 mi
8:00 AM61 °FFog.7 mph100%29.95 "Hg0 mi
7:30 AM61 °FFog.10 mph100%29.95 "Hg0 mi
7:00 AM61 °FFog.6 mph100%29.95 "Hg1 mi
6:30 AM61 °FFog.5 mph100%29.92 "Hg2 mi
6:00 AM61 °FPassing clouds.2 mph100%29.92 "Hg4 mi
Weather by CustomWeather, © 2016

See weather overviewHow to use our weather pages